User: anonymous   Login
Location: Unspecified
(0.0000°N, 0.0000°E)
Time: 20:31:52
(UTC+02:00)
Language:

SJ-6B - Orbit

View from above orbital plane
View from above orbital plane
View from above satellite
View from above satellite

Ground track
Ground track

The orbit data is extracted from the following two-line orbital elements,

1 28415U 04035C   15150.13698849  .00000892  00000-0  66162-4 0  9996
2 28415 097.7945 162.3304 0055529 138.1301 222.4192 15.04544089585870
Epoch (UTC): 30 May 2015 03:17:15
Eccentricity: 0.0055529
inclination: 97.7945°
perigee height: 514 km
apogee height: 591 km
right ascension of ascending node: 162.3304°
argument of perigee: 138.1301°
revolutions per day: 15.04544089
mean anomaly at epoch: 222.4192°
orbit number at epoch: 58587

The dashed part of the orbit path shows where the satellite is in the earth's shadow,  

DLR